User: anonymous   Login
Location: La Comballaz
(46.3780°N, 7.0817°E)
Time: 16:20:19
(UTC+00:00)
Language:

MOS 1 Rocket - Orbit

View from above orbital plane
View from above orbital plane
View from above satellite
View from above satellite

Ground track
Ground track

The orbit data is extracted from the following two-line orbital elements,

1 17528U 87018B   20196.15412818  .00000038  00000-0  17636-4 0  9993
2 17528  97.4142  42.2504 0152048  20.0897 340.6198 14.50991759762708
Epoch (UTC): 14 July 2020 03:41:56
Eccentricity: 0.0152048
inclination: 97.4142°
perigee height: 614 km
apogee height: 830 km
right ascension of ascending node: 42.2504°
argument of perigee: 20.0897°
revolutions per day: 14.50991759
mean anomaly at epoch: 340.6198°
orbit number at epoch: 76270

The dashed part of the orbit path shows where the satellite is in the earth's shadow,  

DLR